Flag for U.S.A. Weather past 2 weeks in Warminster Township, Pennsylvania, U.S.A.

Now
73 °F

Clear.


Feels Like: 73 °F
Forecast: 69 / 89 °F
Wind: 3 mph from Southeast

Location: Doylestown Airport

Current Time: Sep 1, 2015 at 11:09:46 PM

Latest Report: Sep 1, 2015 at 9:54 PM


Visibility: 10 mi

Pressure: 30.03 "Hg

Humidity: 81%

Dew point: 67 °F

Location of Warminster TownshipLocation

Historic Weather in Warminster Township — Graph

°F

Warminster Township temperature yesterday

Maximum temperature yesterday: 88 °F (at 4:54 PM)
Minimum temperature yesterday: 70 °F (at 5:54 AM)
Average temperature yesterday: 78 °F

Past Weeks' High & Low Weather Summary

 TemperatureHumidityPressure
High89 °F (Aug 18, 2:54 PM)100% (Aug 18, 7:54 AM)30.22 "Hg (Aug 18, 7:54 AM)
Low53 °F (Aug 28, 6:54 AM)31% (Aug 22, 3:54 PM)29.81 "Hg (Aug 24, 5:54 PM)
Average72 °F72%30.02 "Hg
* Reported Aug 17 9:54 PM — Sep 1 9:54 PM, Warminster Township, Weather by CustomWeather, © 2015

Note: Actual official high and low records may vary slightly from our data, if they occured in-between our weather recording intervals... More about our weather records

Advertising

Warminster Township weather history for previous 24 hours

 ConditionsComfort  
Time TempWeatherWind HumidityBarometerVisibility
9:54 PM
Tue, Sep 1
73 °FClear.3 mph81%30.03 "Hg10 mi
8:54 PM76 °FClear.5 mph72%30.03 "Hg10 mi
7:54 PM74 °FSunny.No wind74%30.01 "Hg10 mi
6:54 PM80 °FSunny.No wind56%30.00 "Hg10 mi
4:54 PM86 °FSunny.No wind42%30.00 "Hg10 mi
3:54 PM85 °FSunny.No wind46%30.00 "Hg10 mi
2:54 PM87 °FSunny.5 mph46%30.02 "Hg10 mi
1:54 PM86 °FPassing clouds.5 mph46%30.03 "Hg10 mi
12:54 PM85 °FPassing clouds.8 mph51%30.04 "Hg10 mi
11:54 AM84 °FPassing clouds.7 mph55%30.04 "Hg10 mi
10:54 AM82 °FSunny.7 mph60%30.06 "Hg10 mi
9:54 AM79 °FSunny.8 mph67%30.05 "Hg10 mi
8:54 AM76 °FSunny.5 mph80%30.05 "Hg10 mi
7:54 AM69 °FSunny.No wind96%30.04 "Hg8 mi
6:54 AM67 °FClear.No wind97%30.02 "Hg8 mi
5:54 AM66 °FFog.No wind100%30.01 "Hg6 mi
4:54 AM69 °FClear.No wind93%30.00 "Hg10 mi
3:54 AM68 °FClear.No wind96%30.01 "Hg10 mi
2:54 AM72 °FPassing clouds.No wind87%30.01 "Hg10 mi
1:54 AM72 °FClear.5 mph87%30.00 "Hg10 mi
12:54 AM73 °FClear.5 mph84%30.01 "Hg10 mi
11:54 PM
Mon, Aug 31
74 °FClear.5 mph82%30.01 "Hg10 mi
Weather by CustomWeather, © 2015

See weather overviewHow to use our weather pages